Volver al catálogo

STARLINK-37766

ActivoComunicacionesSSO
NORAD 69216·PAYLOAD·🇺🇸 United States

Lanzado May 26, 2026 desde Vandenberg Space Force Base

Loading…

Próximos Pases (próximas 24 horas)

TLE

ActualizadoSource: CelesTrak SupGP

Época: Sep 14, 2026, 21:24 UTC

1 69216C 26115F   26257.89215278  .00029336  00000+0  91067-3 0  2578
2 69216  97.2835 274.0298 0001518 110.3873  63.6649 15.33423376    12

Sigue STARLINK-37766 en tiempo real con AllMySat

Download on the App Store